When you browse on this site, cookies collect data to enhance your experience and personalize the content and advertising you see.
Visit our Privacy Policy to learn more. By continuing to use the site, you agree to this use of cookies and data.
  • în România
  • Lista ţărilor
  • Pe 7 zile
  • Temperatura apei
  • Meteo pe hartă
  • Widget-uri
  • user-avatar
    Intrare

    Meteo pe oră la Mauritius

    Astăzi, 22 Noiembrie, Vineri

    Timp Temperatura Precipitaţii Vânt Presiune Umiditate
    00:00 +25°C° 0 mm 2 m/s 723 mmHg 82%
    01:00 +25°C° 0 mm 2 m/s 723 mmHg 83%
    02:00 +25°C° 0 mm 2 m/s 722 mmHg 84%
    03:00 +24°C° 0 mm 3 m/s 722 mmHg 85%
    04:00 +24°C° 0 mm 3 m/s 722 mmHg 86%
    05:00 +25°C° 0 mm 3 m/s 722 mmHg 83%
    06:00 +25°C° 0 mm 4 m/s 722 mmHg 81%
    07:00 +26°C° 0 mm 4 m/s 722 mmHg 79%
    08:00 +26°C° 0 mm 4 m/s 723 mmHg 74%
    09:00 +27°C° 0 mm 4 m/s 723 mmHg 70%
    10:00 +28°C° 0 mm 5 m/s 723 mmHg 64%
    11:00 +29°C° 0 mm 4 m/s 723 mmHg 63%
    12:00 +29°C° 0 mm 4 m/s 722 mmHg 62%
    13:00 +29°C° 0 mm 4 m/s 722 mmHg 61%
    14:00 +29°C° 0 mm 4 m/s 722 mmHg 62%
    15:00 +28°C° 0 mm 4 m/s 722 mmHg 64%
    16:00 +28°C° 0 mm 5 m/s 721 mmHg 65%
    17:00 +27°C° 0 mm 4 m/s 722 mmHg 68%
    18:00 +27°C° 0 mm 4 m/s 722 mmHg 72%
    19:00 +26°C° 0 mm 3 m/s 722 mmHg 75%
    20:00 +26°C° 0 mm 3 m/s 723 mmHg 77%
    21:00 +26°C° 0 mm 3 m/s 723 mmHg 78%
    22:00 +26°C° 0 mm 3 m/s 723 mmHg 80%
    23:00 +25°C° 0 mm 4 m/s 723 mmHg 81%

    Mâine, 23 Noiembrie, Sâmbătă

    Timp Temperatura Precipitaţii Vânt Presiune Umiditate
    00:00 +25°C° 0 mm 4 m/s 722 mmHg 82%
    01:00 +25°C° 0 mm 4 m/s 722 mmHg 83%
    02:00 +25°C° 0 mm 4 m/s 722 mmHg 84%
    03:00 +25°C° 0 mm 4 m/s 722 mmHg 84%
    04:00 +24°C° 0 mm 3 m/s 722 mmHg 85%
    05:00 +25°C° 0 mm 3 m/s 722 mmHg 82%
    06:00 +25°C° 0 mm 4 m/s 722 mmHg 80%
    07:00 +25°C° 0 mm 4 m/s 723 mmHg 78%
    08:00 +26°C° 0 mm 4 m/s 723 mmHg 74%
    09:00 +27°C° 0 mm 4 m/s 723 mmHg 69%
    10:00 +28°C° 0 mm 4 m/s 723 mmHg 65%
    11:00 +28°C° 0.1 mm 4 m/s 723 mmHg 64%
    12:00 +29°C° 0.1 mm 4 m/s 723 mmHg 63%
    13:00 +29°C° 0.1 mm 4 m/s 722 mmHg 62%
    14:00 +29°C° 0.4 mm 4 m/s 722 mmHg 63%
    15:00 +28°C° 0.4 mm 4 m/s 722 mmHg 64%
    16:00 +28°C° 0.4 mm 3 m/s 722 mmHg 65%
    17:00 +28°C° 0.3 mm 3 m/s 722 mmHg 68%
    18:00 +27°C° 0.3 mm 3 m/s 722 mmHg 72%
    19:00 +26°C° 0.3 mm 3 m/s 722 mmHg 75%
    20:00 +26°C° 0.3 mm 3 m/s 722 mmHg 76%
    21:00 +26°C° 0.3 mm 3 m/s 723 mmHg 78%
    22:00 +26°C° 0.3 mm 2 m/s 723 mmHg 79%
    23:00 +26°C° 0.7 mm 2 m/s 723 mmHg 79%

    Poimâine, 24 Noiembrie, Duminică

    Timp Temperatura Precipitaţii Vânt Presiune Umiditate
    00:00 +25°C° 0.7 mm 2 m/s 722 mmHg 79%
    01:00 +25°C° 0.7 mm 2 m/s 722 mmHg 79%
    02:00 +25°C° 0.8 mm 2 m/s 722 mmHg 80%
    03:00 +25°C° 0.8 mm 2 m/s 721 mmHg 80%
    04:00 +25°C° 0.8 mm 2 m/s 721 mmHg 81%
    05:00 +25°C° 0.8 mm 2 m/s 722 mmHg 79%
    06:00 +25°C° 0.8 mm 2 m/s 722 mmHg 78%
    07:00 +25°C° 0.8 mm 2 m/s 722 mmHg 77%
    08:00 +26°C° 1 mm 2 m/s 723 mmHg 74%
    09:00 +26°C° 1 mm 2 m/s 723 mmHg 72%
    10:00 +27°C° 1 mm 3 m/s 723 mmHg 69%
    11:00 +27°C° 0.8 mm 3 m/s 723 mmHg 68%
    12:00 +28°C° 0.8 mm 3 m/s 723 mmHg 67%
    13:00 +28°C° 0.8 mm 3 m/s 722 mmHg 66%
    14:00 +28°C° 0.8 mm 3 m/s 722 mmHg 68%
    15:00 +27°C° 0.8 mm 3 m/s 722 mmHg 69%
    16:00 +27°C° 0.8 mm 2 m/s 722 mmHg 70%
    17:00 +27°C° 0.5 mm 2 m/s 722 mmHg 72%
    18:00 +26°C° 0.5 mm 1 m/s 722 mmHg 74%
    19:00 +26°C° 0.5 mm 1 m/s 722 mmHg 75%
    20:00 +26°C° 0.5 mm 1 m/s 723 mmHg 77%
    21:00 +25°C° 0.5 mm 1 m/s 723 mmHg 78%
    22:00 +25°C° 0.5 mm 1 m/s 723 mmHg 79%
    23:00 +25°C° 0.9 mm 1 m/s 723 mmHg 80%

    25 Noiembrie, Luni

    Timp Temperatura Precipitaţii Vânt Presiune Umiditate
    00:00 +25°C° 0.9 mm 1 m/s 722 mmHg 81%
    01:00 +25°C° 0.9 mm 1 m/s 722 mmHg 82%
    02:00 +25°C° 0.6 mm 1 m/s 722 mmHg 83%
    03:00 +24°C° 0.6 mm 1 m/s 722 mmHg 83%
    04:00 +24°C° 0.6 mm 1 m/s 722 mmHg 83%
    05:00 +25°C° 0.5 mm 1 m/s 722 mmHg 81%
    06:00 +25°C° 0.5 mm 2 m/s 722 mmHg 79%
    07:00 +25°C° 0.5 mm 2 m/s 722 mmHg 77%
    08:00 +26°C° 0.2 mm 2 m/s 723 mmHg 73%
    09:00 +27°C° 0.2 mm 3 m/s 723 mmHg 69%
    10:00 +28°C° 0.2 mm 3 m/s 723 mmHg 66%
    11:00 +28°C° 0.7 mm 3 m/s 723 mmHg 66%
    12:00 +28°C° 0.7 mm 3 m/s 722 mmHg 66%
    13:00 +28°C° 0.7 mm 3 m/s 722 mmHg 66%
    14:00 +28°C° 0.9 mm 3 m/s 722 mmHg 67%
    15:00 +28°C° 0.9 mm 3 m/s 722 mmHg 67%
    16:00 +27°C° 0.9 mm 3 m/s 722 mmHg 68%
    17:00 +27°C° 0.1 mm 3 m/s 722 mmHg 71%
    18:00 +26°C° 0.1 mm 3 m/s 722 mmHg 73%
    19:00 +26°C° 0.1 mm 2 m/s 722 mmHg 76%
    20:00 +26°C° 0 mm 2 m/s 723 mmHg 78%
    21:00 +25°C° 0 mm 2 m/s 723 mmHg 80%
    22:00 +25°C° 0 mm 2 m/s 723 mmHg 81%
    23:00 +25°C° 0.1 mm 2 m/s 723 mmHg 82%

    26 Noiembrie, Marţi

    Timp Temperatura Precipitaţii Vânt Presiune Umiditate
    00:00 +25°C° 0.1 mm 2 m/s 722 mmHg 84%
    01:00 +24°C° 0.1 mm 2 m/s 722 mmHg 85%
    02:00 +24°C° 0.1 mm 2 m/s 722 mmHg 86%
    03:00 +24°C° 0.1 mm 3 m/s 721 mmHg 87%
    04:00 +24°C° 0.1 mm 3 m/s 721 mmHg 88%
    05:00 +24°C° 0 mm 3 m/s 722 mmHg 86%
    06:00 +25°C° 0 mm 3 m/s 722 mmHg 84%
    07:00 +25°C° 0 mm 3 m/s 722 mmHg 82%
    08:00 +26°C° 0 mm 3 m/s 722 mmHg 78%
    09:00 +27°C° 0 mm 4 m/s 723 mmHg 74%
    10:00 +27°C° 0 mm 4 m/s 723 mmHg 70%
    11:00 +28°C° 0.4 mm 4 m/s 722 mmHg 69%
    12:00 +28°C° 0.4 mm 3 m/s 722 mmHg 67%
    13:00 +28°C° 0.4 mm 3 m/s 722 mmHg 66%
    14:00 +28°C° 0.8 mm 3 m/s 722 mmHg 67%
    15:00 +28°C° 0.8 mm 3 m/s 721 mmHg 67%
    16:00 +28°C° 0.8 mm 3 m/s 721 mmHg 68%
    17:00 +27°C° 0.7 mm 3 m/s 722 mmHg 71%
    18:00 +26°C° 0.7 mm 2 m/s 722 mmHg 74%
    19:00 +26°C° 0.7 mm 2 m/s 722 mmHg 78%
    20:00 +26°C° 0.1 mm 2 m/s 722 mmHg 79%
    21:00 +25°C° 0.1 mm 2 m/s 722 mmHg 81%
    22:00 +25°C° 0.1 mm 2 m/s 723 mmHg 82%
    23:00 +25°C° 0 mm 2 m/s 722 mmHg 83%

    27 Noiembrie, Miercuri

    Timp Temperatura Precipitaţii Vânt Presiune Umiditate
    00:00 +25°C° 0 mm 2 m/s 722 mmHg 84%
    01:00 +25°C° 0 mm 2 m/s 722 mmHg 85%
    02:00 +24°C° 0 mm 2 m/s 722 mmHg 86%
    03:00 +24°C° 0 mm 1 m/s 721 mmHg 87%
    04:00 +24°C° 0 mm 1 m/s 721 mmHg 87%
    05:00 +24°C° 0 mm 1 m/s 722 mmHg 85%
    06:00 +25°C° 0 mm 1 m/s 722 mmHg 83%
    07:00 +25°C° 0 mm 1 m/s 722 mmHg 81%
    08:00 +26°C° 0 mm 2 m/s 723 mmHg 76%
    09:00 +27°C° 0 mm 2 m/s 723 mmHg 71%
    10:00 +28°C° 0 mm 2 m/s 723 mmHg 66%
    11:00 +28°C° 0.3 mm 2 m/s 723 mmHg 66%
    12:00 +28°C° 0.3 mm 2 m/s 722 mmHg 67%
    13:00 +28°C° 0.3 mm 2 m/s 722 mmHg 68%
    14:00 +28°C° 0.8 mm 2 m/s 722 mmHg 69%
    15:00 +27°C° 0.8 mm 2 m/s 721 mmHg 71%
    16:00 +27°C° 0.8 mm 1 m/s 721 mmHg 72%
    17:00 +27°C° 0.6 mm 1 m/s 721 mmHg 73%
    18:00 +26°C° 0.6 mm 1 m/s 722 mmHg 75%
    19:00 +26°C° 0.6 mm 1 m/s 722 mmHg 76%
    20:00 +26°C° 0.1 mm 1 m/s 722 mmHg 78%
    21:00 +26°C° 0.1 mm 1 m/s 723 mmHg 80%
    22:00 +25°C° 0.1 mm 1 m/s 723 mmHg 81%
    23:00 +25°C° 0.1 mm 1 m/s 722 mmHg 82%
    Arată mai mult